Location: PACMO
(41.3967°N, 90.3760°W)
Time: 07:38:04
(UTC-05:00)

Amateur Radio Satellites - All Passes

Search period start: 31 March 2015 07:08
Search period end: 01 April 2015 07:08
Location: PACMO, 41.3967°N, 90.3760°W

Satellite Date Start Highest point End Downlink Frequencies (MHz)
Time Altitude Azimuth
PHONESAT 2.4 31 Mar 07:15:04 07:18:33 65° 170° (S) 07:22:04 2401.200-2431.200
CUTE-I 31 Mar 07:19:33 07:24:52 68° 101° (ESE) 07:30:09 437.470
DANDE 31 Mar 07:20:03 07:23:22 22° 75° (ENE) 07:27:37 436.750
Cubesat XI-IV 31 Mar 07:20:18 07:25:39 70° 102° (ESE) 07:30:57 437.490
JAS-2 31 Mar 07:27:14 07:31:59 17° 305° (NW) 07:36:13 435.910
AO-7 31 Mar 07:30:08 07:36:01 21° 308° (NW) 07:41:38 29.400- 29.500
RS-15 31 Mar 07:37:03 07:39:47 11° 263° (W) 07:41:11 29.354- 29.394
GONETS M04 31 Mar 07:42:42 07:51:17 57° 269° (W) 07:59:49
VERMONT LUNAR 31 Mar 07:56:33 07:59:53 74° 186° (S) 08:03:14 437.305
CUSAT 1 31 Mar 08:00:40 08:05:08 78° 81° (E) 08:11:10 437.405
STRAND 1 31 Mar 08:16:11 08:20:17 23° 268° (W) 08:24:13 437.568
GOMX 1 31 Mar 08:29:25 08:30:39 11° 89° (E) 08:32:11 467.674
PHONESAT 2.4 31 Mar 08:53:19 08:56:50 73° 187° (S) 09:00:22 2401.200-2431.200
CANX-2 31 Mar 09:00:10 09:03:33 23° 93° (E) 09:07:00 2200.000
CUTE-I 31 Mar 09:01:04 09:04:27 17° 298° (WNW) 09:07:37 437.470
Cubesat XI-IV 31 Mar 09:01:55 09:05:14 16° 298° (WNW) 09:08:20 437.490
DANDE 31 Mar 09:02:42 09:06:37 34° 263° (W) 09:11:38 436.750
HO-68 31 Mar 09:10:12 09:16:43 37° 96° (E) 09:23:18 435.675
CINEMA 3 31 Mar 09:11:04 09:12:31 12° 89° (E) 09:14:15 145.822/145.860
CUTE 1.7 + AOD 2 31 Mar 09:13:32 09:17:16 28° 95° (E) 09:21:02 437.475
BEESAT 2 31 Mar 09:14:24 09:16:34 14° 110° (ESE) 09:18:54 435.950
BRITE-PL 31 Mar 09:28:32 09:32:46 80° 102° (ESE) 09:37:13 437.365/2234.400
AAUSAT CUBESAT 2 31 Mar 09:30:28 09:34:00 26° 94° (E) 09:37:34 437.432
VERMONT LUNAR 31 Mar 09:34:20 09:37:23 32° 202° (SSW) 09:40:25 437.305
SEEDS 31 Mar 09:39:30 09:43:39 46° 98° (E) 09:47:47 437.485
DOVE 4 31 Mar 09:44:03 09:48:19 51° 100° (E) 09:52:48 437.250
CUSAT 1 31 Mar 09:46:15 09:47:56 11° 267° (W) 09:49:21 437.405
BEESAT 3 31 Mar 09:47:14 09:51:00 38° 117° (ESE) 09:54:53 437.485
COMPASS 1 31 Mar 09:58:47 10:03:02 63° 100° (E) 10:07:14 437.405
UNISAT 6 31 Mar 10:02:18 10:05:48 26° 69° (ENE) 10:09:26 437.425
GOMX 1 31 Mar 10:04:59 10:09:15 64° 285° (WNW) 10:13:44 467.674
Oscar 11 31 Mar 10:10:40 10:14:38 34° 96° (E) 10:18:38 145.826/435.025
TIGRISAT 31 Mar 10:11:19 10:15:03 31° 70° (ENE) 10:18:53 435.000
QB50P1 31 Mar 10:16:30 10:19:26 19° 67° (ENE) 10:22:29 145.935-145.965
DUCHIFAT 1 31 Mar 10:17:10 10:20:05 19° 67° (ENE) 10:23:06 145.980
FUNcube-1 31 Mar 10:25:23 10:29:04 26° 95° (E) 10:32:52 145.935
QB50P2 31 Mar 10:31:21 10:34:54 28° 70° (ENE) 10:38:33 145.880/145.840
PHONESAT 2.4 31 Mar 10:31:46 10:34:58 31° 203° (SSW) 10:38:09 2401.200-2431.200
DELFI C3 31 Mar 10:32:24 10:36:22 45° 99° (E) 10:40:18 145.870
UWE-3 31 Mar 10:34:43 10:38:56 41° 98° (E) 10:43:15 435.000/436.395/437.385
CANX-2 31 Mar 10:35:41 10:39:33 31° 289° (WNW) 10:43:21 2200.000
AIST 2 31 Mar 10:36:22 10:40:16 37° 116° (ESE) 10:44:16 435.215
ZACube-1 31 Mar 10:38:47 10:42:53 37° 97° (E) 10:47:04 437.345
ANTELSAT 31 Mar 10:42:07 10:46:22 71° 75° (ENE) 10:50:42 437.575/2403.000
CUBEBUG 2 31 Mar 10:43:57 10:48:23 64° 101° (E) 10:52:57 437.445
VELOX 1 31 Mar 10:44:44 10:46:37 13° 89° (E) 10:48:45 145.980
CINEMA 3 31 Mar 10:45:46 10:50:12 67° 285° (WNW) 10:54:48 145.822/145.860
BUGSAT 1 31 Mar 10:47:45 10:51:19 29° 70° (ENE) 10:54:54 437.445
CUTE 1.7 + AOD 2 31 Mar 10:49:32 10:53:08 25° 291° (WNW) 10:56:37 437.475
AISAT 31 Mar 10:49:48 10:52:20 15° 90° (E) 10:55:02 437.250
BEESAT 2 31 Mar 10:50:16 10:54:19 54° 306° (NW) 10:58:25 435.950
HO-68 31 Mar 10:57:48 11:04:34 44° 294° (WNW) 11:11:14 435.675
POPSAT HIP 1 31 Mar 10:59:02 11:03:08 55° 74° (ENE) 11:07:16 437.405
AAUSAT CUBESAT 2 31 Mar 11:06:00 11:09:36 27° 290° (WNW) 11:13:08 437.432
NANOSAT C BR1 31 Mar 11:08:39 11:12:51 71° 75° (ENE) 11:17:03 145.865
HUMSAT D 31 Mar 11:13:15 11:17:19 43° 98° (E) 11:21:27 437.325/437.525
POLYITAN 1 31 Mar 11:14:48 11:19:01 85° 77° (ENE) 11:23:15 437.675
SEEDS 31 Mar 11:16:23 11:19:08 16° 294° (WNW) 11:21:43 437.485
UKube-1 31 Mar 11:17:40 11:21:59 66° 102° (ESE) 11:26:16 .
DOVE 4 31 Mar 11:23:06 11:25:49 16° 293° (WNW) 11:28:25 437.250
ESTCUBE 1 31 Mar 11:25:51 11:29:04 20° 92° (E) 11:32:23 437.505/2401.250
BEESAT 3 31 Mar 11:25:52 11:29:13 23° 315° (NW) 11:32:31 437.485
DX 1 31 Mar 11:30:41 11:35:03 83° 283° (WNW) 11:39:22 434.975-435.025
50 SAT 31 Mar 11:35:23 11:39:20 50° 99° (E) 11:43:17 437.505
COMPASS 1 31 Mar 11:36:24 11:38:15 12° 296° (WNW) 11:39:56 437.405
UNISAT 6 31 Mar 11:38:53 11:42:33 27° 265° (W) 11:46:15 437.425
Oscar 11 31 Mar 11:47:15 11:50:40 22° 292° (WNW) 11:53:59 145.826/435.025
TIGRISAT 31 Mar 11:48:30 11:51:54 22° 267° (W) 11:55:15 435.000
QB50P1 31 Mar 11:51:10 11:55:06 37° 263° (W) 11:59:01 145.935-145.965
DUCHIFAT 1 31 Mar 11:51:46 11:55:41 37° 262° (W) 11:59:36 145.980
FUNcube-1 31 Mar 12:01:34 12:05:24 29° 290° (WNW) 12:09:14 145.935
QB50P2 31 Mar 12:07:18 12:10:49 25° 266° (W) 12:14:16 145.880/145.840
DELFI C3 31 Mar 12:08:43 12:11:12 15° 294° (WNW) 12:13:33 145.870
UWE-3 31 Mar 12:12:01 12:15:15 19° 292° (WNW) 12:18:24 435.000/436.395/437.385
CUBEBUG 1 31 Mar 12:13:02 12:17:18 55° 100° (E) 12:21:32 437.445
SPROUT 31 Mar 12:15:05 12:17:28 15° 90° (E) 12:20:02 437.525
AIST 2 31 Mar 12:15:25 12:19:00 25° 314° (NW) 12:22:32 435.215
ZACube-1 31 Mar 12:15:41 12:19:03 21° 292° (WNW) 12:22:22 437.345
VELOX 1 31 Mar 12:19:19 12:23:39 57° 286° (WNW) 12:27:58 145.980
CUBEBUG 2 31 Mar 12:22:25 12:24:40 13° 295° (WNW) 12:26:45 437.445
BUGSAT 1 31 Mar 12:23:30 12:26:50 23° 266° (W) 12:30:04 437.445
AISAT 31 Mar 12:25:01 12:29:16 48° 288° (WNW) 12:33:30 437.250
YUBILEINY 31 Mar 12:35:18 12:41:30 23° 81° (E) 12:48:06 435.215
POPSAT HIP 1 31 Mar 12:37:33 12:39:27 12° 271° (W) 12:41:08 437.405
HUMSAT D 31 Mar 12:49:57 12:52:48 17° 293° (WNW) 12:55:33 437.325/437.525
UKube-1 31 Mar 12:55:48 12:57:39 12° 297° (WNW) 12:59:19 .
ESTCUBE 1 31 Mar 13:01:55 13:06:08 39° 289° (WNW) 13:10:19 437.505/2401.250
O/OREOS (USA 219) 31 Mar 13:06:49 13:10:39 26° 58° (ENE) 13:14:30 437.305
50 SAT 31 Mar 13:11:43 13:13:53 14° 294° (WNW) 13:15:53 437.505
Oscar 19 31 Mar 13:13:25 13:18:18 48° 71° (ENE) 13:23:15 437.125/150
TISAT 1 31 Mar 13:31:07 13:35:21 89° 97° (E) 13:39:33 437.305
SWISSCUBE 31 Mar 13:42:21 13:45:46 20° 92° (E) 13:49:18 437.505
BEESAT 31 Mar 13:44:56 13:48:18 19° 92° (E) 13:51:48 436.000
Gurwin Techsat 1B 31 Mar 13:46:58 13:51:21 27° 67° (ENE) 13:55:50 435.225
SPROUT 31 Mar 13:49:46 13:53:53 47° 287° (WNW) 13:57:59 437.525
CUBEBUG 1 31 Mar 13:50:53 13:53:16 14° 296° (WNW) 13:55:28 437.445
JAS-2 31 Mar 14:12:49 14:14:19 11° 49° (NE) 14:16:19 435.910
ITAMSAT 1 31 Mar 14:23:31 14:28:42 72° 75° (ENE) 14:33:56 435.822/435.867
AIST 1 31 Mar 14:25:41 14:28:23 16° 69° (ENE) 14:31:11
YUBILEINY 31 Mar 14:28:43 14:37:31 75° 280° (W) 14:46:24 435.215
HORYU 2 31 Mar 14:30:38 14:32:55 14° 64° (ENE) 14:35:25 437.375
ITUPSAT 1 31 Mar 14:32:19 14:37:03 57° 101° (E) 14:41:45 437.325
PCSat 31 Mar 14:38:06 14:43:26 67° 117° (ESE) 14:48:52 145.827
AO-7 31 Mar 14:44:00 14:50:43 30° 57° (ENE) 14:57:38 29.400- 29.500
O/OREOS (USA 219) 31 Mar 14:46:04 14:50:06 31° 255° (WSW) 14:54:01 437.305
KKS-1 31 Mar 14:53:59 14:56:59 18° 92° (E) 15:00:07 437.445
Oscar 19 31 Mar 14:54:11 14:57:59 20° 269° (W) 15:01:39 437.125/150
SWISSCUBE 31 Mar 15:19:20 15:23:53 43° 289° (WNW) 15:28:22 437.505
STARS 31 Mar 15:20:18 15:23:41 22° 94° (E) 15:27:10 437.465
BEESAT 31 Mar 15:21:51 15:26:25 44° 289° (WNW) 15:30:56 436.000
Gurwin Techsat 1B 31 Mar 15:26:14 15:31:11 39° 263° (W) 15:36:08 435.225
JAS-2 31 Mar 15:50:56 15:57:40 52° 69° (ENE) 16:05:06 435.910
AIST 1 31 Mar 16:02:15 16:06:19 40° 267° (W) 16:10:18
HORYU 2 31 Mar 16:04:47 16:09:09 58° 259° (W) 16:13:34 437.375
ITAMSAT 1 31 Mar 16:06:08 16:08:51 14° 272° (W) 16:11:17 435.822/435.867
ITUPSAT 1 31 Mar 16:11:28 16:14:32 17° 296° (WNW) 16:17:25 437.325
PCSat 31 Mar 16:23:17 16:27:25 21° 316° (NW) 16:31:28 145.827
KKS-1 31 Mar 16:29:39 16:33:52 42° 288° (WNW) 16:38:02 437.445
YUBILEINY 31 Mar 16:31:09 16:36:17 16° 304° (WNW) 16:40:54 435.215
AO-7 31 Mar 16:34:44 16:43:00 67° 256° (WSW) 16:51:16 29.400- 29.500
MOZHAYETS 4 31 Mar 16:45:36 16:48:37 17° 90° (E) 16:51:47
STARS 31 Mar 16:56:15 17:00:15 34° 290° (WNW) 17:04:12 437.465
CUTE-I 31 Mar 17:04:23 17:07:22 16° 61° (ENE) 17:10:35 437.470
Cubesat XI-IV 31 Mar 17:05:10 17:08:16 16° 62° (ENE) 17:11:35 437.490
SO-50 31 Mar 17:30:04 17:31:59 13° 108° (ESE) 17:34:10 436.795
RS-15 31 Mar 17:33:01 17:40:30 23° 103° (ESE) 17:48:35 29.354- 29.394
BEESAT 2 31 Mar 17:33:07 17:35:02 13° 38° (NE) 17:37:04 435.950
JAS-2 31 Mar 17:36:48 17:43:02 33° 269° (W) 17:49:40 435.910
BEESAT 3 31 Mar 18:06:16 18:09:45 26° 47° (NE) 18:13:16 437.485
AUBIESAT-1 31 Mar 18:11:40 18:16:05 36° 101° (E) 18:20:24 437.475
MOZHAYETS 4 31 Mar 18:21:41 18:26:09 47° 288° (WNW) 18:30:35
PRISM 31 Mar 18:29:02 18:29:08 10° 88° (E) 18:29:31 437.425
AO-7 31 Mar 18:34:54 18:37:36 11° 276° (W) 18:39:31 29.400- 29.500
M-CUBED/EXP-1 PRIME 31 Mar 18:37:57 18:42:50 75° 106° (ESE) 18:47:34 437.505
CUBESAT XI-V 31 Mar 18:39:07 18:42:33 21° 92° (E) 18:46:05 437.345
CUTE-I 31 Mar 18:41:32 18:46:54 74° 257° (WSW) 18:52:17 437.470
Cubesat XI-IV 31 Mar 18:42:28 18:47:50 72° 257° (WSW) 18:53:14 437.490
GONETS M04 31 Mar 18:47:49 18:55:23 36° 86° (E) 19:03:11
STRAND 1 31 Mar 18:48:01 18:50:33 14° 89° (E) 18:53:20 437.568
AIST 2 31 Mar 18:58:08 19:01:49 28° 47° (NE) 19:05:28 435.215
SO-50 31 Mar 19:07:19 19:11:57 74° 304° (NW) 19:16:45 436.795
BEESAT 2 31 Mar 19:09:39 19:13:49 87° 239° (WSW) 19:17:54 435.950
GOMX 1 31 Mar 19:38:14 19:40:09 13° 66° (ENE) 19:42:13 467.674
HO-68 31 Mar 19:39:29 19:45:19 29° 61° (ENE) 19:51:20 435.675
RS-15 31 Mar 19:40:40 19:51:35 87° 301° (WNW) 20:02:46 29.354- 29.394
BEESAT 3 31 Mar 19:44:10 19:47:50 31° 245° (WSW) 19:51:24 437.485
AUBIESAT-1 31 Mar 19:46:38 19:50:45 28° 297° (WNW) 19:54:40 437.475
CANX-2 31 Mar 19:54:03 19:56:47 17° 66° (ENE) 19:59:39 2200.000
PRISM 31 Mar 20:01:01 20:05:10 66° 286° (WNW) 20:09:16 437.425
CUTE 1.7 + AOD 2 31 Mar 20:07:05 20:10:16 22° 68° (ENE) 20:13:34 437.475
M-CUBED/EXP-1 PRIME 31 Mar 20:14:20 20:17:09 15° 303° (WNW) 20:19:45 437.505
CINEMA 3 31 Mar 20:14:57 20:15:26 10° 63° (ENE) 20:16:09 145.822/145.860
CUBESAT XI-V 31 Mar 20:15:52 20:20:11 38° 289° (WNW) 20:24:25 437.345
AAUSAT CUBESAT 2 31 Mar 20:22:13 20:25:05 19° 67° (ENE) 20:28:05 437.432
STRAND 1 31 Mar 20:25:15 20:30:20 68° 287° (WNW) 20:35:23 437.568
SEEDS 31 Mar 20:31:54 20:35:39 33° 71° (ENE) 20:39:29 437.485
DANDE 31 Mar 20:36:01 20:37:49 16° 96° (E) 20:39:35 436.750
AIST 2 31 Mar 20:36:39 20:40:26 31° 245° (WSW) 20:44:06 435.215
BRITE-PL 31 Mar 20:39:36 20:44:16 88° 257° (WSW) 20:48:37 437.365/2234.400
GONETS M04 31 Mar 20:43:39 20:52:02 49° 286° (WNW) 21:00:27
COMPASS 1 31 Mar 20:50:12 20:54:09 42° 73° (ENE) 20:58:11 437.405
DOVE 4 31 Mar 20:50:16 20:54:24 50° 74° (ENE) 20:58:28 437.250
SO-50 31 Mar 20:50:57 20:53:26 14° 326° (NW) 20:55:48 436.795
Oscar 11 31 Mar 21:05:49 21:09:25 27° 69° (ENE) 21:13:08 145.826/435.025
CUSAT 1 31 Mar 21:12:34 21:15:19 77° 281° (WNW) 21:17:55 437.405
GOMX 1 31 Mar 21:13:35 21:17:58 58° 260° (W) 21:22:09 467.674
DELFI C3 31 Mar 21:20:30 21:24:00 29° 70° (ENE) 21:27:34 145.870
FUNcube-1 31 Mar 21:22:10 21:25:10 20° 68° (ENE) 21:28:17 145.935
HO-68 31 Mar 21:25:37 21:32:40 58° 259° (WSW) 21:39:46 435.675
CANX-2 31 Mar 21:28:24 21:32:26 42° 262° (W) 21:36:30 2200.000
UWE-3 31 Mar 21:32:32 21:36:12 32° 71° (ENE) 21:39:58 435.000/436.395/437.385
ZACube-1 31 Mar 21:35:28 21:38:59 28° 70° (ENE) 21:42:36 437.345
CUTE 1.7 + AOD 2 31 Mar 21:42:11 21:46:02 33° 264° (W) 21:49:53 437.475
CUBEBUG 2 31 Mar 21:42:40 21:46:41 51° 74° (ENE) 21:50:45 437.445
VELOX 1 31 Mar 21:43:09 21:45:08 13° 64° (ENE) 21:47:20 145.980
PCSat 31 Mar 21:45:02 21:46:30 11° 34° (NE) 21:48:12 145.827
CINEMA 3 31 Mar 21:47:59 21:52:09 71° 259° (WSW) 21:56:19 145.822/145.860
AISAT 31 Mar 21:48:23 21:50:55 16° 65° (ENE) 21:53:36 437.250
ISS 31 Mar 21:53:41 21:56:41 35° 138° (SE) 21:59:43 145.825
RS-15 31 Mar 21:56:17 22:05:48 31° 330° (NNW) 22:15:23 29.354- 29.394
AAUSAT CUBESAT 2 31 Mar 21:56:35 22:00:29 37° 263° (W) 22:04:24 437.432
HUMSAT D 31 Mar 22:05:37 22:09:12 30° 70° (ENE) 22:12:51 437.325/437.525
SEEDS 31 Mar 22:08:19 22:11:34 21° 268° (W) 22:14:44 437.485
UKube-1 31 Mar 22:12:32 22:16:46 57° 73° (ENE) 22:21:02 .
DANDE 31 Mar 22:20:07 22:21:05 11° 288° (WNW) 22:21:54 436.750
50 SAT 31 Mar 22:21:50 22:25:13 29° 71° (ENE) 22:28:41 437.505
ESTCUBE 1 31 Mar 22:25:58 22:29:10 20° 66° (ENE) 22:32:30 437.505/2401.250
DX 1 31 Mar 22:26:08 22:30:30 86° 77° (ENE) 22:34:53 434.975-435.025
COMPASS 1 31 Mar 22:27:28 22:30:08 16° 270° (W) 22:32:38 437.405
DOVE 4 31 Mar 22:30:25 22:32:33 13° 270° (W) 22:34:28 437.250
ANTELSAT 31 Mar 22:35:07 22:37:49 16° 90° (E) 22:40:45 437.575/2403.000
Oscar 11 31 Mar 22:41:54 22:45:35 26° 266° (W) 22:49:14 145.826/435.025
YUBILEINY 31 Mar 22:46:57 22:48:07 10° 51° (NE) 22:50:02 435.215
DELFI C3 31 Mar 22:55:57 22:59:12 22° 267° (W) 23:02:24 145.870
NANOSAT C BR1 31 Mar 22:55:58 22:57:12 11° 88° (E) 22:58:40 145.865
FUNcube-1 31 Mar 22:57:34 23:01:21 33° 264° (W) 23:05:07 145.935
POLYITAN 1 31 Mar 23:01:51 23:04:00 14° 90° (E) 23:06:21 437.675
CUBEBUG 1 31 Mar 23:09:11 23:13:24 47° 73° (ENE) 23:17:38 437.445
UWE-3 31 Mar 23:09:46 23:12:54 20° 268° (W) 23:15:56 435.000/436.395/437.385
SPROUT 31 Mar 23:10:29 23:12:18 13° 64° (ENE) 23:14:19 437.525
ZACube-1 31 Mar 23:12:03 23:15:24 23° 267° (W) 23:18:42 437.345
VELOX 1 31 Mar 23:16:50 23:21:15 64° 259° (W) 23:25:39 145.980
CUBEBUG 2 31 Mar 23:21:55 23:23:49 12° 271° (W) 23:25:31 437.445
AISAT 31 Mar 23:22:48 23:27:09 53° 260° (W) 23:31:30 437.250
PCSat 31 Mar 23:25:57 23:31:17 54° 56° (NE) 23:36:35 145.827
UNISAT 6 31 Mar 23:29:40 23:34:13 58° 100° (E) 23:38:51 437.425
ISS 31 Mar 23:30:09 23:33:06 31° 334° (NNW) 23:36:04 145.825
QB50P1 31 Mar 23:36:10 23:40:00 33° 97° (E) 23:43:51 145.935-145.965
DUCHIFAT 1 31 Mar 23:36:27 23:40:15 32° 96° (E) 23:44:04 145.980
TIGRISAT 31 Mar 23:38:37 23:43:13 71° 102° (ESE) 23:47:53 435.000
HUMSAT D 31 Mar 23:41:51 23:45:03 21° 267° (W) 23:48:10 437.325/437.525
UKube-1 31 Mar 23:51:17 23:53:21 13° 270° (W) 23:55:12 .
QB50P2 31 Mar 23:51:44 23:55:53 51° 99° (E) 00:00:03 145.880/145.840
50 SAT 31 Mar 23:57:14 00:00:12 20° 267° (W) 00:03:05 437.505
ESTCUBE 1 01 Apr 00:01:26 00:05:47 42° 262° (W) 00:10:07 437.505/2401.250
BUGSAT 1 01 Apr 00:04:47 00:08:42 48° 99° (E) 00:12:37 437.445
ANTELSAT 01 Apr 00:10:28 00:14:58 53° 286° (WNW) 00:19:30 437.575/2403.000
RS-15 01 Apr 00:15:07 00:23:04 21° 5° (N) 00:31:18 29.354- 29.394
POPSAT HIP 1 01 Apr 00:19:51 00:24:05 78° 284° (WNW) 00:28:19 437.405
TISAT 1 01 Apr 00:23:17 00:27:28 66° 75° (ENE) 00:31:39 437.305
NANOSAT C BR1 01 Apr 00:29:21 00:33:32 60° 286° (WNW) 00:37:42 145.865
POLYITAN 1 01 Apr 00:36:09 00:40:17 49° 287° (WNW) 00:44:24 437.675
YUBILEINY 01 Apr 00:38:58 00:47:36 56° 76° (ENE) 00:56:11 435.215
SPROUT 01 Apr 00:43:42 00:47:57 61° 259° (W) 00:52:12 437.525
CUBEBUG 1 01 Apr 00:47:17 00:50:05 16° 270° (W) 00:52:41 437.445
SWISSCUBE 01 Apr 00:49:06 00:52:52 24° 67° (ENE) 00:56:46 437.505
BEESAT 01 Apr 00:51:37 00:55:21 24° 66° (ENE) 00:59:11 436.000
UNISAT 6 01 Apr 01:07:50 01:10:37 16° 295° (WNW) 01:13:15 437.425
ISS 01 Apr 01:08:26 01:10:16 14° 354° (N) 01:12:06 145.825
PCSat 01 Apr 01:10:15 01:14:21 21° 253° (WSW) 01:18:17 145.827
QB50P1 01 Apr 01:12:27 01:15:43 21° 292° (WNW) 01:18:53 145.935-145.965
DUCHIFAT 1 01 Apr 01:12:40 01:15:56 22° 292° (WNW) 01:19:06 145.980
TIGRISAT 01 Apr 01:17:17 01:19:29 13° 296° (WNW) 01:21:28 435.000
Oscar 19 01 Apr 01:25:57 01:29:10 17° 90° (E) 01:32:36 437.125/150
QB50P2 01 Apr 01:28:58 01:31:26 15° 295° (WNW) 01:33:44 145.880/145.840
ITUPSAT 1 01 Apr 01:39:04 01:43:50 67° 74° (ENE) 01:48:39 437.325
BUGSAT 1 01 Apr 01:41:39 01:43:51 14° 295° (WNW) 01:45:53 437.445
KKS-1 01 Apr 01:52:48 01:55:41 18° 66° (ENE) 01:58:43 437.445
SO-50 01 Apr 01:59:13 02:02:30 18° 38° (NE) 02:05:54 436.795
TISAT 1 01 Apr 02:03:13 02:03:49 10° 272° (W) 02:04:07 437.305
STARS 01 Apr 02:17:50 02:21:01 21° 67° (ENE) 02:24:19 437.465
SWISSCUBE 01 Apr 02:26:05 02:30:34 37° 263° (W) 02:35:02 437.505
BEESAT 01 Apr 02:28:31 02:33:00 38° 262° (W) 02:37:29 436.000
RS-15 01 Apr 02:29:27 02:39:51 39° 37° (NE) 02:50:49 29.354- 29.394
YUBILEINY 01 Apr 02:36:29 02:44:03 32° 275° (W) 02:51:19 435.215
ITAMSAT 1 01 Apr 02:36:57 02:41:08 25° 94° (E) 02:45:25 435.822/435.867
ISS 01 Apr 02:45:21 02:47:37 18° 14° (NNE) 02:49:55 145.825
Oscar 19 01 Apr 03:03:53 03:08:58 58° 288° (WNW) 03:14:03 437.125/150
O/OREOS (USA 219) 01 Apr 03:19:07 03:23:03 29° 104° (ESE) 03:27:03 437.305
ITUPSAT 1 01 Apr 03:19:56 03:22:18 13° 272° (W) 03:24:23 437.325
KKS-1 01 Apr 03:27:46 03:32:02 45° 261° (W) 03:36:18 437.445
SO-50 01 Apr 03:38:45 03:43:44 82° 238° (WSW) 03:48:38 436.795
Gurwin Techsat 1B 01 Apr 03:41:49 03:47:10 84° 103° (ESE) 03:52:30 435.225
MOZHAYETS 4 01 Apr 03:48:05 03:51:04 18° 65° (ENE) 03:54:14
STARS 01 Apr 03:53:12 03:57:16 37° 262° (W) 04:01:21 437.465
VERMONT LUNAR 01 Apr 03:54:28 03:56:32 16° 150° (SSE) 03:58:40 437.305
M-CUBED/EXP-1 PRIME 01 Apr 03:55:24 03:56:33 11° 55° (NE) 03:57:57 437.505
HORYU 2 01 Apr 03:56:24 04:00:11 26° 95° (E) 04:04:00 437.375
ITAMSAT 1 01 Apr 04:15:58 04:20:48 39° 291° (WNW) 04:25:34 435.822/435.867
ISS 01 Apr 04:21:16 04:24:30 66° 33° (NNE) 04:27:42 145.825
AIST 1 01 Apr 04:31:11 04:35:35 71° 279° (W) 04:39:59
AO-7 01 Apr 04:36:18 04:44:02 42° 98° (E) 04:51:50 29.400- 29.500
RS-15 01 Apr 04:41:53 04:53:23 74° 242° (WSW) 05:05:20 29.354- 29.394
JAS-2 01 Apr 04:45:42 04:53:02 47° 96° (E) 04:59:46 435.910
GONETS M04 01 Apr 04:58:10 05:03:35 18° 59° (ENE) 05:09:27
O/OREOS (USA 219) 01 Apr 04:58:25 05:02:26 29° 301° (WNW) 05:06:26 437.305
PHONESAT 2.4 01 Apr 04:58:45 05:01:24 20° 152° (SSE) 05:04:05 2401.200-2431.200
AUBIESAT-1 01 Apr 04:59:47 05:03:42 43° 66° (ENE) 05:07:58 437.475
MOZHAYETS 4 01 Apr 05:23:28 05:27:58 49° 262° (W) 05:32:29
Gurwin Techsat 1B 01 Apr 05:23:49 05:26:32 14° 299° (WNW) 05:28:59 435.225
M-CUBED/EXP-1 PRIME 01 Apr 05:26:37 05:30:42 86° 250° (WSW) 05:35:13 437.505
VERMONT LUNAR 01 Apr 05:30:33 05:33:48 51° 165° (SSE) 05:37:04 437.305
HORYU 2 01 Apr 05:32:53 05:36:50 30° 291° (WNW) 05:40:43 437.375
CUBESAT XI-V 01 Apr 05:42:48 05:46:21 22° 67° (ENE) 05:50:00 437.345
ISS 01 Apr 05:58:49 06:00:33 14° 229° (SW) 06:02:13 145.825
STRAND 1 01 Apr 06:03:33 06:07:24 22° 65° (ENE) 06:11:24 437.568
AO-7 01 Apr 06:29:08 06:36:54 45° 297° (WNW) 06:44:35 29.400- 29.500
JAS-2 01 Apr 06:30:56 06:37:53 37° 295° (WNW) 06:44:13 435.910
PHONESAT 2.4 01 Apr 06:35:54 06:39:23 59° 167° (SSE) 06:42:52 2401.200-2431.200
AUBIESAT-1 01 Apr 06:35:58 06:38:51 18° 266° (W) 06:41:44 437.475
PRISM 01 Apr 06:50:59 06:55:13 89° 256° (WSW) 06:59:28 437.425
